Lancaster, PA

5:49 AM EDT on June 29, 2017 (GMT -0400)
Lancaster

Weather History for KLNS - May, 2012

Change the Weather History Date:

Thursday, May 17, 2012

  Actual Average Record
Temperature  
Mean Temperature 62 °F -  
Max Temperature 72 °F 73 °F 93 °F (2017)
Min Temperature 53 °F 50 °F 34 °F (1983)
Degree Days  
Heating Degree Days 3    
Growing Degree Days 12 (Base 50)    
Moisture  
Dew Point 44 °F    
Average Humidity 55    
Maximum Humidity 78    
Minimum Humidity 32    
Precipitation  
Precipitation 0.00 in - - ()
Sea Level Pressure  
Sea Level Pressure 30.08 in    
Wind  
Wind Speed 7 mph (North)    
Max Wind Speed 15 mph    
Max Gust Speed 23 mph    
Visibility 10 miles    
Events      
Averages and records for this station are not official NWS values.
T = Trace of Precipitation, MM = Missing Value Source: NWS Daily Summary

Daily Weather History Graph

Daily Weather History Graph

Search for Another Location

Airport or City:

Trip Planner

Search our weather history database for the weather conditions in past years. The results will help you decide how hot, cold, wet, or windy it might be!

Date:

Astronomy

May. 17, 2012 Rise Set
Actual Time 5:47 AM EDT 8:16 PM EDT
Civil Twilight 5:16 AM EDT 8:47 PM EDT
Nautical Twilight 4:38 AM EDT 9:25 PM EDT
Astronomical Twilight 3:55 AM EDT 10:08 PM EDT
Moon 3:44 AM EDT (5/17) 5:26 PM EDT (5/17)
Length of Visible Light 15h 30m
Length of Day
14h 28m
Waning Crescent, 10% of the Moon is Illuminated
May 17
Waning Crescent
May 20
New
May 28
First Quarter
Jun 4
Full
Jun 11
Last Quarter

Hourly Weather History & Observations

Time (EDT) Temp. Dew Point Humidity Pressure Visibility Wind Dir Wind Speed Gust Speed Precip Events Conditions
12:53 AM 66.9 °F 55.0 °F 66% 29.95 in 10.0 mi NW 5.8 mph - N/A   Overcast
1:53 AM 64.9 °F 57.0 °F 75% 29.96 in 9.0 mi NNW 6.9 mph - 0.00 in   Mostly Cloudy
2:53 AM 63.0 °F 55.9 °F 78% 29.97 in 8.0 mi North 15.0 mph 21.9 mph N/A   Clear
3:53 AM 57.9 °F 48.9 °F 72% 30.00 in 10.0 mi North 9.2 mph - N/A   Scattered Clouds
4:02 AM 57.2 °F 48.2 °F 72% 30.01 in 10.0 mi North 13.8 mph 23.0 mph N/A   Mostly Cloudy
4:25 AM 57.2 °F 46.4 °F 67% 30.02 in 10.0 mi North 12.7 mph 18.4 mph N/A   Scattered Clouds
4:53 AM 55.0 °F 46.0 °F 72% 30.02 in 10.0 mi North 9.2 mph - N/A   Clear
5:53 AM 53.1 °F 46.0 °F 77% 30.06 in 10.0 mi North 6.9 mph - N/A   Scattered Clouds
6:53 AM 53.1 °F 42.1 °F 66% 30.09 in 10.0 mi NNE 5.8 mph - N/A   Clear
7:53 AM 55.0 °F 39.9 °F 57% 30.11 in 10.0 mi NNE 8.1 mph - N/A   Clear
8:53 AM 57.0 °F 39.0 °F 51% 30.12 in 10.0 mi North 10.4 mph - N/A   Clear
9:53 AM 59.0 °F 39.9 °F 49% 30.14 in 10.0 mi NE 5.8 mph - N/A   Clear
10:53 AM 61.0 °F 41.0 °F 48% 30.14 in 10.0 mi North 6.9 mph - N/A   Clear
11:53 AM 63.0 °F 39.9 °F 43% 30.15 in 10.0 mi Calm Calm - N/A   Clear
12:53 PM 64.9 °F 42.1 °F 43% 30.14 in 10.0 mi Variable 4.6 mph - N/A   Clear
1:53 PM 66.9 °F 39.9 °F 37% 30.11 in 10.0 mi Variable 4.6 mph - N/A   Clear
2:53 PM 68.0 °F 39.9 °F 36% 30.10 in 10.0 mi Variable 3.5 mph - N/A   Clear
3:53 PM 70.0 °F 41.0 °F 35% 30.09 in 10.0 mi NE 6.9 mph - N/A   Clear
4:53 PM 71.1 °F 41.0 °F 34% 30.09 in 10.0 mi NNW 8.1 mph - N/A   Clear
5:53 PM 71.1 °F 39.9 °F 32% 30.09 in 10.0 mi Calm Calm - N/A   Clear
6:53 PM 70.0 °F 43.0 °F 38% 30.10 in 10.0 mi East 3.5 mph - N/A   Clear
7:53 PM 66.9 °F 44.1 °F 44% 30.10 in 10.0 mi Calm Calm - N/A   Clear
8:53 PM 61.0 °F 42.1 °F 50% 30.12 in 10.0 mi Calm Calm - N/A   Clear
9:53 PM 57.9 °F 42.1 °F 56% 30.12 in 10.0 mi Calm Calm - N/A   Clear
10:53 PM 54.0 °F 44.1 °F 69% 30.14 in 10.0 mi Calm Calm - N/A   Clear
11:53 PM 54.0 °F 44.1 °F 69% 30.14 in 10.0 mi Calm Calm - N/A   Clear